CDT,Max TemperatureF,Mean TemperatureF,Min TemperatureF,Max Dew PointF,MeanDew PointF,Min DewpointF,Max Humidity, Mean Humidity, Min Humidity, Max Sea Level PressureIn, Mean Sea Level PressureIn, Min Sea Level PressureIn, Max VisibilityMiles, Mean VisibilityMiles, Min VisibilityMiles, Max Wind SpeedMPH, Mean Wind SpeedMPH, Max Gust SpeedMPH,PrecipitationIn, CloudCover, Events, WindDirDegrees
2012-10-1,67,58,49,47,44,41,86,64,42,29.88,29.84,29.80,10,10,10,16,7,21,0.00,0,,28
2012-10-2,75,62,49,52,47,43,86,62,38,29.90,29.84,29.79,10,10,10,17,8,23,T,3,Rain,9
2012-10-3,71,64,57,56,53,47,93,69,44,30.05,29.97,29.88,10,10,9,10,3,14,T,8,Rain,196
2012-10-4,82,66,49,56,51,45,86,62,37,30.20,30.11,30.05,10,10,10,23,11,28,0.12,4,Rain,257
2012-10-5,49,43,37,46,41,33,93,85,76,30.24,30.21,30.17,10,9,5,17,6,21,0.57,7,Rain-Thunderstorm,328
2012-10-6,50,43,35,34,31,29,89,69,49,30.26,30.23,30.19,10,10,10,17,8,23,0.00,1,,296
2012-10-7,52,42,32,34,30,25,89,62,35,30.28,30.23,30.19,10,10,10,16,5,29,0.00,3,,284
2012-10-8,60,47,33,35,31,27,82,58,33,30.22,30.14,30.06,10,10,10,21,8,32,0.00,0,,189
2012-10-9,67,55,43,44,40,36,92,66,40,30.05,29.98,29.89,10,10,10,26,12,33,0.05,3,Rain,215
2012-10-10,57,47,36,42,33,27,96,64,32,30.27,30.18,30.03,10,10,10,20,8,24,0.00,0,,295
2012-10-11,67,53,38,41,35,30,77,56,34,30.24,30.19,30.11,10,10,10,21,10,26,0.00,0,,200
2012-10-12,63,52,41,43,39,33,76,60,43,30.41,30.31,30.21,10,10,10,18,10,24,0.00,1,,75
2012-10-13,73,63,52,64,59,44,97,82,66,30.23,29.97,29.80,10,5,1,24,13,30,1.94,7,Rain-Thunderstorm,178
2012-10-14,74,63,51,64,58,45,87,77,66,29.90,29.70,29.58,10,9,1,36,17,44,0.33,6,Rain,226
2012-10-15,66,55,43,45,44,40,96,70,43,30.01,29.96,29.91,10,10,8,13,5,20,0.00,0,,270
2012-10-16,75,61,47,54,49,42,86,68,49,29.95,29.75,29.58,10,10,10,24,14,29,0.00,0,,169
2012-10-17,64,57,50,61,55,47,93,75,56,29.61,29.47,29.33,10,7,1,33,14,39,0.41,6,Rain-Thunderstorm,214
2012-10-18,57,51,45,45,38,33,86,65,43,29.58,29.53,29.50,10,10,10,33,14,43,0.07,4,Rain,237
2012-10-19,52,49,45,45,44,42,92,82,71,29.74,29.58,29.47,10,9,1,23,13,29,0.03,8,Rain,259
2012-10-20,58,52,46,45,44,42,86,72,57,29.94,29.85,29.74,10,10,7,14,6,20,T,7,Rain,252
2012-10-21,74,59,43,59,50,41,96,75,53,29.97,29.94,29.91,10,10,10,14,8,17,0.00,0,,134
2012-10-22,72,66,60,64,59,54,87,77,67,29.96,29.93,29.89,10,8,1,24,13,30,1.09,6,Rain-Thunderstorm,173
2012-10-23,73,69,64,63,61,57,87,78,68,29.96,29.90,29.87,10,10,10,23,11,28,0.03,4,Rain,181
2012-10-24,81,72,63,66,61,57,84,73,62,29.96,29.91,29.85,10,10,10,23,13,28,0.00,1,,182
2012-10-25,80,62,43,65,52,37,89,74,58,30.16,29.89,29.74,10,9,2,38,17,45,0.39,5,Rain,253
2012-10-26,50,44,37,36,31,28,76,61,46,30.36,30.30,30.18,10,10,10,20,12,26,0.00,2,,344
2012-10-27,50,41,32,31,29,27,78,62,46,30.35,30.30,30.26,10,10,10,16,9,22,0.00,0,,355
2012-10-28,52,43,33,35,30,26,82,66,50,30.30,30.28,30.25,10,10,10,16,8,20,0.00,2,,4
2012-10-29,54,43,32,35,28,24,82,59,35,30.34,30.25,30.12,10,10,10,17,9,22,0.00,0,,349
2012-10-30,57,46,34,25,21,15,64,43,22,30.11,29.96,29.87,10,10,10,25,12,36,0.00,0,,321
2012-10-31,53,42,31,27,23,17,72,49,26,29.97,29.94,29.90,10,10,10,18,9,24,0.00,0,,300